Hurghada, Egypt

1:23 PM EET on April 26, 2018 (GMT +0200)
Hurghada

Weather History for HEGN - November, 2013

Change the Weather History Date:

Friday, November 1, 2013

  Actual Average Record
Temperature  
Mean Temperature 78 °F -  
Max Temperature 87 °F 77 °F 95 °F (2006)
Min Temperature 69 °F 62 °F 62 °F (2001)
Cooling Degree Days 13    
Growing Degree Days 28 (Base 50)    
Moisture  
Dew Point 62 °F    
Average Humidity 62    
Maximum Humidity 83    
Minimum Humidity 41    
Precipitation  
Precipitation 0.00 in - - ()
Sea Level Pressure  
Sea Level Pressure 29.93 in    
Wind  
Wind Speed 11 mph ()    
Max Wind Speed 21 mph    
Max Gust Speed -    
Visibility 3.7 miles    
Events      
Averages and records for this station are not official NWS values.
T = Trace of Precipitation, MM = Missing Value Source: Averaged Metar Reports

Daily Weather History Graph

Daily Weather History Graph

Search for Another Location

Airport or City:

Astronomy

Nov. 01, 2013 Rise Set
Actual Time 5:55 AM EET 5:01 PM EET
Civil Twilight 5:31 AM EET 5:25 PM EET
Nautical Twilight 5:03 AM EET 5:53 PM EET
Astronomical Twilight 4:36 AM EET 6:20 PM EET
Moon 3:37 AM EET (11/1) 3:33 PM EET (11/1)
Length of Visible Light 11h 54m
Length of Day
11h 06m
Waning Crescent, 6% of the Moon is Illuminated
Nov 1
Waning Crescent
Nov 3
New
Nov 10
First Quarter
Nov 17
Full
Nov 25
Last Quarter

Hourly Weather History & Observations

Time (EET) Temp. Heat Index Dew Point Humidity Pressure Visibility Wind Dir Wind Speed Gust Speed Precip Events Conditions
12:00 AM 73.4 °F - 60.8 °F 65% 29.92 in - NW 11.5 mph - N/A   Clear
1:00 AM 73.4 °F - 60.8 °F 65% 29.92 in - NW 12.7 mph - N/A   Clear
2:00 AM 71.6 °F - 62.6 °F 73% 29.92 in - NW 11.5 mph - N/A   Clear
3:00 AM 71.6 °F - 62.6 °F 73% 29.92 in - NW 11.5 mph - N/A   Clear
4:00 AM 71.6 °F - 66.2 °F 83% 29.92 in - NW 13.8 mph - N/A   Clear
5:00 AM 69.8 °F - 64.4 °F 83% 29.92 in - NW 16.1 mph - N/A   Clear
6:00 AM 69.8 °F - 64.4 °F 83% 29.95 in - NW 11.5 mph - N/A   Clear
7:00 AM 69.8 °F - 64.4 °F 83% 29.95 in - NW 13.8 mph - N/A   Clear
8:00 AM 73.4 °F - 64.4 °F 73% 29.98 in - NNW 11.5 mph - N/A   Clear
9:00 AM 77.0 °F - 64.4 °F 65% 29.95 in - NNW 16.1 mph - N/A   Clear
10:00 AM 78.8 °F - 64.4 °F 61% 29.98 in 3.7 mi NNW 17.3 mph - N/A   Unknown
11:00 AM 82.4 °F 83.9 °F 64.4 °F 54% 29.95 in 3.7 mi North 20.7 mph - N/A   Unknown
12:00 PM 84.2 °F 85.0 °F 62.6 °F 48% 29.92 in 3.7 mi North 17.3 mph - N/A   Partly Cloudy
1:00 PM 87.8 °F 88.5 °F 62.6 °F 43% 29.89 in 3.7 mi North 15.0 mph - N/A   Partly Cloudy
2:00 PM 87.8 °F 88.5 °F 62.6 °F 43% 29.89 in 3.7 mi North 12.7 mph - N/A   Partly Cloudy
3:00 PM 87.8 °F 88.5 °F 62.6 °F 43% 29.89 in 3.7 mi NNE 6.9 mph - N/A   Unknown
4:00 PM 82.4 °F 84.6 °F 66.2 °F 58% 29.89 in 3.7 mi NNE 4.6 mph - N/A   Unknown
5:00 PM 78.8 °F - 64.4 °F 61% 29.89 in 3.7 mi NNE 6.9 mph - N/A   Unknown
6:00 PM 77.0 °F - 66.2 °F 69% 29.89 in - North 9.2 mph - N/A   Clear
7:00 PM 75.2 °F - 64.4 °F 69% 29.92 in - WNW 9.2 mph - N/A   Clear
8:00 PM 75.2 °F - 62.6 °F 65% 29.95 in - WNW 4.6 mph - N/A   Clear
9:00 PM 73.4 °F - 55.4 °F 53% 29.95 in - WNW 4.6 mph - N/A   Clear
10:00 PM 73.4 °F - 48.2 °F 41% 29.95 in - WNW 13.8 mph - N/A   Clear
11:00 PM 73.4 °F - 48.2 °F 41% 29.95 in - NW 9.2 mph - N/A   Clear